Regional Weather Roundup
Issued by NWS

Home | Current Version | Previous Version | Graphics & Text | Print | Product List | Glossary On
Versions: 1 2 3 4 5 6 7 8 9 10 11 12 13 14 15 16 17 18 19 20 21 22 23 24 25 26 27 28 29 30 31 32 33 34 35 36 37 38 39 40 41 42 43 44 45 46 47 48 49 50
000
ASUS43 KLOT 281104
RWRIL

ILLINOIS REGIONAL WEATHER ROUNDUP
NATIONAL WEATHER SERVICE CHICAGO/ROMEOVILLE IL
600 AM CDT FRI JUL 28 2017

NOTE: "FAIR" INDICATES FEW OR NO CLOUDS BELOW 12,000 FEET WITH NO
SIGNIFICANT WEATHER AND/OR OBSTRUCTIONS TO VISIBILITY.

* THESE STATIONS ARE NOT UNDER NWS QUALITY CONTROL. THEY ALSO MAY NOT
  REPORT WEATHER SUCH AS PRECIPITATION OR FOG.

ILZ001-002-007-009-015-016-024-281200-
NORTHWEST ILLINOIS

CITY           SKY/WX    TMP DP  RH WIND       PRES   REMARKS
MOLINE         CLEAR     65  56  72 N6        29.98S
SAVANNA*       CLEAR     61  56  84 NW5       30.01R
$$

ILZ003-004-008-010-011-017-018-281200-
NORTH CENTRAL ILLINOIS

CITY           SKY/WX    TMP DP  RH WIND       PRES   REMARKS
ROCKFORD       PTCLDY    63  56  78 N12       30.01R
FREEPORT*      CLEAR     58  55  90 NE3       30.03R
ROCHELLE*      CLEAR     61  58  88 N9        29.99S
DE KALB*       CLEAR     61  59  94 N10       29.99R
PERU*          CLEAR     61  57  88 N9        29.96S
$$

ILZ005-006-012>014-019>023-281200-
NORTHEAST ILLINOIS

CITY           SKY/WX    TMP DP  RH WIND       PRES   REMARKS
CHICAGO-OHARE  PTCLDY    69  63  81 N12       29.95R
CHICAGO-MIDWAY PTCLDY    70  66  87 N7        29.93S
AURORA         CLEAR     64  61  90 N12       29.96R
LANSING*       CLEAR     70  64  80 CALM      29.93R
JOLIET*        CLEAR     68  65  90 N8        29.94R
WAUKEGAN       CLEAR     67  64  90 N9        29.97R
DUPAGE AIRPORT CLEAR     64  63  96 N10       29.96R
WHEELING       CLEAR     67  66  97 N8        29.98R
MORRIS*        CLEAR     64  61  91 CALM      29.93R
ROMEOVILLE*    CLEAR     66  62  86 NE10      29.94R
$$

LMZ740>746-281200-
SOUTHERN LAKE MICHIGAN

STATION/POSITION SKY/WX   TEMP    WIND        PRES    VSBY  WAVE
                          AIR SEA DIR/SP/G                  HT/PER
                          (F)     (DEG/KT/KT) (MB)    (MI)  (FT/S)
SOUTHERN BUOY              71 72   40/ 12/ 14 1014.3          3/ 5
WILMETTE HARBOR            71 71   20/ 12/ 16   N/A           4/ 6
HARRISON CRIB              72      40/ 12/ 13   N/A
BURNHAM HARBOR             70                   N/A
CALUMET HARBOR             71      20/  9/ 13 1013.2R
BURNS HARBOR               70      70/ 14/ 16 1013.9R
MICHIGAN CITY              68      70/  7/  8   N/A
MICHIGAN CITY 6N           70 73   90/ 10/ 12   N/A           4/ 6
ST. JOSEPH                 67 71  110/ 10/ 14 1013.7R         3/ 6
$$

ILZ025>027-034>036-040-047-049-050-058-095>099-281200-
WEST-CENTRAL ILLINOIS

CITY           SKY/WX    TMP DP  RH WIND       PRES   REMARKS
QUINCY         CLEAR     63  59  87 N7        29.95R
GALESBURG*     CLEAR     58  56  93 N7        29.98R
MACOMB*        CLEAR     60  57  91 N5        29.98S
JACKSONVILLE*  CLEAR     64  61  91 N7        29.93R
PITTSFIELD*    PTCLDY    67  63  87 N7        29.95R
$$

ILZ028>032-037-038-041>044-048-051>054-059>061-281200-
CENTRAL ILLINOIS

CITY           SKY/WX    TMP DP  RH WIND       PRES   REMARKS
PONTIAC        CLEAR     64  63  98 N8        29.94R
BLOOMINGTON    PTCLDY    62  59  90 N12       29.93R
DECATUR        CLEAR     65  61  87 N8        29.90R
PEORIA         CLEAR     62  59  90 N6        29.94S
LACON*         CLEAR     61  60  96 N5        29.95R
LINCOLN*       CLEAR     63  59  88 N8        29.92R
SPRINGFIELD    CLEAR     66  60  81 N8        29.92R
TAYLORVILLE    CLEAR     64  62  92 N8        29.91R
$$

ILZ033-039-045-046-055>057-062-063-281200-
EAST-CENTRAL ILLINOIS

CITY           SKY/WX    TMP DP  RH WIND       PRES   REMARKS
CHAMPAIGN      MOCLDY    66  63  90 N7        29.89S
RANTOUL*       CLOUDY    68  66  93 N8        29.90S
MATTOON        CLOUDY    67  66  97 N9        29.87S
PARIS*         CLOUDY    65  65 100 NW3       29.88R FOG
$$

ILZ079-100>102-281200-
SOUTHWEST ILLINOIS

CITY           SKY/WX    TMP DP  RH WIND       PRES   REMARKS
ALTON          PTCLDY    68  68 100 CALM      29.90R
CAHOKIA*       CLOUDY    74  68  81 N9        29.89R
SPARTA*        CLOUDY    74  73  99 N6        29.88R FOG
$$

ILZ064>066-069>071-074>076-080>082-084>086-088>090-092>094-281200-
SOUTH-CENTRAL ILLINOIS

CITY           SKY/WX    TMP DP  RH WIND       PRES   REMARKS
CARBONDALE     CLOUDY    75  75 100 N7        29.84R
CAIRO*         MOCLDY    76  75  95 W6        29.83R
EFFINGHAM*     CLOUDY    68  68 100 NW3       29.88S
MARION         RAIN      77  75  94 N5        29.84R
MT. VERNON     CLOUDY    73  72  96 N3        29.85S FOG
CENTRALIA*     CLOUDY    72  71  96 N6        29.85S
SALEM*         CLOUDY    71  68  90 N5        29.86F
METROPOLIS*    CLOUDY    78  76  94 W5        29.83S HX  81
$$

ILZ067-068-072-073-078-083-087-091-281200-
SOUTHEAST ILLINOIS

CITY           SKY/WX    TMP DP  RH WIND       PRES   REMARKS
LAWRENCEVILLE  CLOUDY    73  71  93 N9        29.84S FOG
FLORA*         CLOUDY    72  69  91 N6        29.86S
FAIRFIELD*     CLOUDY    73  73  98 N7        29.84R FOG
HARRISBURG*    CLOUDY    75  75 100 CALM      29.84R FOG
ROBINSON*      CLOUDY    69  68  98 NW7       29.86S FOG
CARMI*         CLOUDY    74  74 100 N3        29.82S
$$

ABBREVIATIONS USED IN REMARKS
   TC - TEMPERATURE IN CELSIUS
  WCI - WIND CHILL INDEX
   HX - HEAT INDEX
  VSB - VISIBILITY
$$




USA.gov is the U.S. government's official web portal to all federal, state and local government web resources and services.